Temperature
22 22 21 21 20 20 20 19 18 18 17 17 16 16 15 15 14 14 13 13 13 13 13 13 13 13 13 13 13 13 13 14 14 14 14 15 15 15 15 15 15 16 16
22 22 22 21 21 20 20 19 19 18 17 17 16 16 15 15 14 14 13 13 13 13 13 12 12 12 13 13 13 13 13 13 14 14 14 14 14 15 15 15 15 15 16
22 22 22 21 21 21 20 20 19 18 17 17 16 16 15 15 14 14 13 13 13 13 13 12 12 12 12 13 13 13 13 13 13 14 14 14 14 14 14 15 15 15 15
22 23 22 22 21 21 20 20 19 18 18 17 16 16 15 15 14 14 14 13 13 13 13 12 12 12 12 12 12 13 13 13 13 13 14 14 14 14 14 14 15 15 15
23 23 23 22 22 21 20 20 19 18 18 17 17 16 15 15 14 14 14 13 13 13 13 13 12 12 12 12 12 12 13 13 13 13 13 14 14 14 14 14 14 15 15
23 23 23 22 21 21 20 20 19 19 18 17 17 16 16 15 14 14 14 13 13 13 13 13 12 12 12 12 12 12 12 13 13 13 13 13 14 14 14 14 14 14 15
23 23 23 22 22 21 21 20 19 19 18 18 17 16 16 15 15 14 14 14 13 13 13 13 12 12 12 12 12 12 12 12 13 13 13 13 13 13 14 14 14 14 14
23 23 23 22 22 21 21 20 20 19 18 18 17 16 16 15 15 14 14 14 13 13 13 13 13 13 13 12 12 12 12 12 12 12 13 13 13 13 13 13 14 14 14
23 23 23 22 22 22 21 20 20 19 19 18 17 17 16 15 15 15 14 14 14 13 13 13 13 13 13 13 12 12 12 12 12 12 12 12 13 13 13 13 13 14 14
23 23 22 22 22 21 21 20 20 19 19 18 17 17 16 16 15 15 14 14 14 13 13 13 13 13 13 13 12 12 12 12 12 12 12 12 12 13 13 13 13 13 13
22 22 22 22 22 21 20 20 19 19 18 18 17 17 16 16 15 15 15 14 14 14 13 13 13 13 13 13 13 13 12 12 12 12 12 12 12 12 13 13 13 13 13
21 22 22 22 21 21 20 20 19 19 19 18 18 17 17 16 16 15 15 14 14 14 14 13 13 13 13 13 13 13 13 12 12 12 12 12 12 12 12 12 13 13 13
21 21 21 21 21 20 20 20 19 19 19 18 18 17 17 16 16 16 15 15 14 14 14 14 13 13 13 13 13 13 13 13 12 12 12 12 12 12 12 12 12 12 13
19 20 20 20 20 20 20 20 19 19 19 18 18 18 17 17 16 16 15 15 14 14 14 14 14 13 13 13 13 13 13 13 13 12 12 12 12 12 12 12 12 12 12
18 19 19 19 19 20 20 19 19 19 19 18 18 18 17 17 16 16 16 15 15 14 14 14 14 14 13 13 13 13 13 13 13 13 13 13 12 12 12 12 12 12 12
17 18 18 19 19 19 19 19 19 19 18 18 18 18 17 17 17 16 16 15 15 15 14 14 14 14 14 13 13 13 13 13 13 13 13 13 13 12 12 12 12 12 12
17 17 17 18 18 18 19 19 19 18 18 18 18 18 17 17 17 16 16 16 15 15 15 14 14 14 14 14 14 13 13 13 13 13 13 13 13 13 12 12 12 12 12
16 16 17 17 17 18 18 18 18 18 18 18 18 17 17 17 17 16 16 16 16 15 15 15 15 14 14 14 14 13 13 13 13 13 13 13 13 13 13 12 12 12 12
15 16 16 16 17 17 17 17 17 17 17 17 17 17 17 17 17 16 16 16 16 16 15 15 15 15 15 14 14 14 13 13 13 13 13 13 13 13 12 12 12 12 12
15 15 15 16 16 16 16 16 16 16 16 16 16 16 16 16 16 16 16 16 16 16 16 15 15 15 15 14 14 14 13 13 13 13 13 13 13 13 12 12 12 12 12
14 14 15 15 15 15 15 15 15 15 15 15 16 16 16 16 16 16 16 16 16 15 15 15 15 15 15 15 14 14 14 13 13 13 13 13 13 12 12 12 12 12 12
14 14 14 14 14 14 14 14 14 14 15 15 15 15 16 16 15 16 16 16 15 15 15 15 15 15 15 15 14 14 14 14 13 13 13 13 13 12 12 12 12 12 12
13 13 13 13 13 13 13 13 13 13 14 14 15 15 15 15 15 15 15 15 15 15 15 15 15 15 15 15 15 14 14 13 13 13 13 13 12 12 12 12 12 12 11
12 12 12 12 12 12 12 12 12 12 13 13 14 14 14 14 15 15 15 15 15 14 14 14 15 15 15 15 15 14 14 13 13 13 13 12 12 12 12 12 11 11 11
11 11 11 11 11 11 11 11 11 11 12 12 13 13 13 13 14 14 14 14 15 14 14 14 15 15 15 15 15 14 14 14 13 13 12 12 12 11 11 11 11 11 11
11 10 10 10 10 10 10 10 10 10 10 11 12 12 12 12 13 13 14 14 14 14 14 14 14 14 14 15 14 14 14 13 13 13 12 12 12 11 11 11 11 10 10
Wind_Speed
9 6 7 8 8 8 8 8 7 6 5 3 2 2 1 0 1 1 1 2 2 3 2 2 3 3 3 3 3 2 2 2 2 1 2 3 2 2 1 1 0 0 0
6 7 7 8 9 9 9 8 8 7 6 4 3 2 2 1 1 1 2 2 3 3 2 2 2 2 3 4 4 2 2 2 2 1 1 2 3 3 3 2 1 1 0
9 8 8 9 9 10 11 11 9 8 7 5 3 3 3 2 1 1 2 2 3 3 2 2 2 2 2 2 3 2 2 2 2 2 1 2 1 2 2 2 3 2 1
7 8 9 10 11 12 10 9 9 8 7 6 5 5 3 3 3 2 2 3 3 2 2 2 2 2 2 2 3 2 1 1 1 2 1 1 2 1 1 2 2 2 2
6 8 10 11 10 9 9 9 8 8 7 6 6 5 3 3 1 1 2 2 2 2 2 2 2 2 2 2 3 2 2 1 0 1 1 1 2 1 2 1 2 2 2
5 6 6 6 7 7 8 8 9 8 7 7 6 6 6 4 3 2 2 2 2 3 3 1 1 2 2 2 2 2 1 1 1 1 1 1 1 0 1 1 0 1 2
3 4 5 7 8 9 9 9 10 9 8 7 7 7 7 6 6 4 3 3 2 2 3 1 2 2 2 2 1 1 2 1 1 1 1 0 0 1 1 2 1 1 2
3 5 6 7 8 9 10 10 11 9 9 9 8 6 6 5 4 5 4 4 4 4 3 2 2 2 2 2 1 1 1 1 1 1 1 1 1 0 1 2 2 1 2
6 5 5 5 7 8 10 11 11 10 10 10 8 7 7 6 6 5 4 4 4 3 4 3 3 2 2 1 0 1 1 1 1 1 1 1 1 1 0 1 2 3 1
7 6 4 5 5 6 6 7 9 10 9 9 8 7 7 7 6 5 5 5 4 3 3 3 3 2 2 1 0 1 1 0 1 1 1 1 1 1 1 1 1 2 3
8 6 4 3 3 3 4 6 7 7 7 8 8 7 7 7 6 6 6 6 4 4 4 4 3 3 2 1 1 1 1 0 1 1 0 1 1 1 1 1 1 1 2
7 6 4 2 1 2 3 5 7 8 8 8 8 8 7 7 7 7 7 6 6 5 5 4 3 3 3 2 2 3 2 1 1 1 1 1 0 0 1 0 0 0 1
9 8 6 5 3 2 3 5 6 8 7 7 8 8 8 8 9 9 7 6 6 5 5 4 5 5 4 4 4 3 3 3 3 2 2 2 1 1 1 1 1 0 1
10 9 8 7 5 4 4 4 5 6 6 7 8 10 10 10 10 9 8 7 7 6 6 6 6 5 5 4 4 4 3 3 3 3 3 3 3 3 3 2 1 1 2
12 11 10 8 7 6 5 4 5 5 5 6 9 11 10 9 8 8 8 7 7 8 7 6 5 5 5 5 6 5 5 4 4 3 3 4 5 5 4 3 3 3 2
12 12 11 10 9 8 7 6 5 4 4 6 9 9 8 8 9 9 8 8 8 7 7 7 7 6 6 8 10 8 5 5 5 5 4 4 5 5 6 6 6 6 4
10 11 10 10 9 9 7 6 6 3 3 5 7 6 7 8 10 9 9 10 9 8 8 8 8 8 9 10 10 11 7 6 6 6 5 4 4 4 3 4 5 4 5
10 11 10 11 9 9 8 7 5 3 3 5 6 6 6 8 8 8 10 11 9 9 9 9 9 8 9 12 11 11 8 6 6 6 6 6 5 4 5 4 3 2 3
7 7 8 8 9 10 10 8 6 5 4 5 7 7 7 8 8 9 11 10 9 10 9 8 10 10 10 12 12 10 6 6 7 6 6 7 6 8 8 6 5 3 2
7 8 8 8 10 11 9 8 7 7 7 8 8 7 7 8 9 11 10 9 9 11 10 10 10 11 10 11 13 12 6 6 6 5 5 9 9 9 9 7 6 6 4
7 8 8 8 9 9 9 9 9 9 10 10 9 7 7 8 10 9 8 7 9 9 9 10 9 10 11 12 13 13 8 8 6 6 5 6 10 10 10 9 7 8 5
7 7 7 8 8 8 8 9 10 11 11 10 9 8 8 8 7 8 8 7 8 9 10 9 9 8 9 10 12 14 14 11 8 7 6 6 9 9 9 7 7 8 6
6 6 7 8 8 8 8 10 11 12 11 11 10 10 9 8 7 7 8 6 7 8 9 9 10 9 7 9 13 14 15 15 9 7 8 9 9 7 5 7 8 7 5
7 7 7 8 9 9 9 9 11 11 11 11 11 10 8 8 7 6 6 7 7 9 9 10 10 9 7 8 8 8 8 11 9 6 7 8 8 6 5 4 4 4 5
6 6 7 8 10 10 10 10 11 11 11 11 11 10 8 9 8 7 7 9 10 10 12 11 10 10 11 13 15 12 9 9 9 8 4 4 4 4 3 3 3 3 4
6 7 7 8 9 10 10 11 10 10 10 11 11 9 8 8 7 7 8 10 11 13 16 16 13 12 14 14 17 18 16 16 17 10 6 7 7 7 7 6 5 4 5
Wind_Direction
238 211 195 179 169 167 168 167 162 159 145 136 133 135 169 264 318 316 339 349 356 3 15 1 356 359 358 343 340 337 346 351 343 24 10 360 8 26 22 348 320 5 19
227 206 190 180 180 178 177 175 176 172 175 166 155 155 151 192 250 301 333 344 348 349 356 3 351 354 356 355 357 7 360 354 12 55 63 13 4 5 16 14 15 19 65
221 208 195 192 185 187 186 186 183 179 180 160 121 91 68 40 12 329 317 326 335 335 346 348 342 350 2 342 342 357 25 353 355 30 110 124 209 324 349 9 22 22 44
221 208 198 196 198 197 187 183 179 179 178 165 162 156 163 190 224 234 271 309 328 331 336 340 348 347 348 340 332 9 13 29 347 349 23 113 174 134 3 348 358 20 30
224 215 209 206 202 188 181 179 174 180 178 174 175 168 173 195 215 238 283 309 323 323 326 330 348 340 338 339 344 357 15 27 49 348 350 28 44 78 121 1 345 1 359
246 232 217 199 192 180 178 174 176 186 183 181 182 184 185 188 195 224 254 284 303 305 309 313 337 323 322 329 332 339 7 18 46 53 54 82 73 83 111 139 352 343 336
257 237 215 200 192 186 185 181 182 192 190 188 195 197 195 192 201 211 221 237 262 271 278 291 296 299 302 311 327 351 0 12 38 46 37 47 135 177 145 137 138 38 348
280 250 231 213 203 196 188 185 191 198 193 196 204 202 199 197 208 211 211 221 231 245 257 262 269 281 299 313 338 352 335 17 28 29 33 28 7 38 156 157 147 89 20
301 278 258 228 212 201 198 196 195 199 200 203 202 203 203 204 211 216 215 226 236 243 245 246 261 274 287 295 312 345 342 28 28 14 27 32 355 17 29 146 158 148 126
322 310 281 246 226 214 206 198 201 206 205 202 204 208 208 208 208 208 219 227 233 236 239 244 251 259 263 268 265 289 302 14 337 337 38 34 2 17 29 76 126 149 154
320 317 307 282 240 206 196 201 207 211 210 209 210 210 210 207 204 211 222 223 224 224 229 232 235 237 236 236 243 259 259 238 310 326 12 337 10 33 22 57 84 114 141
332 331 330 338 315 227 217 212 213 215 217 210 208 216 213 202 207 219 224 218 221 224 222 220 222 230 227 221 229 250 238 221 246 267 261 279 277 39 12 67 102 141 155
356 357 359 353 332 289 250 232 226 226 222 208 208 214 213 209 215 221 221 216 217 222 220 211 216 225 225 224 229 228 228 226 233 235 232 246 202 228 236 216 196 180 112
6 5 1 349 334 316 292 264 249 236 224 211 211 217 218 216 218 217 215 214 213 214 216 213 218 222 223 222 225 220 220 226 235 231 226 225 215 219 214 210 208 161 113
5 1 356 348 343 335 321 298 272 253 231 219 220 225 224 221 219 217 215 213 212 215 214 214 220 223 221 222 215 215 216 220 233 241 237 235 231 225 210 197 190 165 147
357 355 354 352 346 334 320 311 292 271 237 230 233 232 225 220 219 220 216 212 214 215 210 213 216 224 229 231 219 207 208 212 220 236 247 249 245 243 232 219 197 183 176
354 353 349 342 336 329 314 303 294 277 244 244 246 236 226 225 225 221 214 216 215 210 212 216 214 224 235 238 229 213 199 207 218 225 234 242 230 222 215 221 207 206 209
354 350 345 342 336 334 330 315 314 296 264 261 260 245 233 234 231 220 221 222 215 211 215 218 215 221 234 234 231 218 200 208 220 222 221 226 236 222 201 190 190 212 229
342 338 336 334 338 344 341 336 332 320 298 283 275 263 242 238 232 229 230 225 215 216 215 214 211 216 231 230 225 211 195 213 227 228 221 218 226 233 206 183 191 209 241
344 343 342 349 352 346 344 348 338 330 310 293 283 276 258 242 238 236 236 228 218 221 217 219 215 213 222 224 219 205 193 209 224 227 227 223 221 224 201 187 188 201 215
340 343 348 351 343 340 347 347 341 327 310 302 292 282 271 254 246 241 240 232 222 219 218 220 220 216 219 223 218 205 195 205 211 217 221 223 220 213 204 193 195 206 189
343 345 347 341 337 341 347 341 331 319 316 309 297 286 277 269 263 247 243 234 220 219 220 221 226 224 221 219 221 214 205 198 198 211 213 212 204 200 196 194 198 193 170
334 334 335 332 334 337 340 332 322 322 324 321 306 293 288 276 265 250 244 239 221 222 225 220 226 228 219 219 218 215 210 201 198 206 200 194 189 185 186 189 186 176 162
326 327 331 333 330 328 327 317 316 320 322 321 314 302 294 288 276 262 247 236 229 227 226 224 227 226 217 214 210 208 207 199 196 191 184 175 171 162 158 161 169 169 170
313 318 319 317 315 317 317 316 317 321 321 317 315 310 296 287 278 266 253 246 238 230 225 227 223 218 223 220 202 193 195 191 185 160 144 148 154 165 162 154 150 153 156
304 309 310 309 309 312 313 315 316 317 317 318 316 312 305 296 284 278 283 267 255 252 241 231 222 226 224 210 197 197 194 184 170 157 170 181 184 184 184 179 174 171 171
Height
1503 1506 1508 1510 1513 1515 1516 1518 1519 1520 1520 1520 1520 1520 1519 1519 1519 1518 1517 1516 1515 1513 1512 1511 1509 1508 1506 1504 1503 1502 1501 1500 1500 1500 1499 1499 1499 1500 1501 1502 1503 1505 1507
1501 1503 1505 1508 1510 1512 1514 1516 1517 1518 1519 1519 1519 1519 1519 1518 1518 1517 1517 1516 1514 1513 1512 1511 1509 1507 1506 1504 1503 1502 1501 1500 1500 1500 1499 1499 1500 1499 1500 1501 1502 1503 1505
1498 1500 1502 1504 1507 1509 1512 1514 1516 1517 1518 1519 1518 1518 1517 1517 1517 1517 1516 1515 1514 1513 1512 1510 1509 1507 1506 1504 1503 1502 1501 1500 1500 1499 1500 1499 1499 1500 1501 1501 1501 1503 1504
1496 1498 1499 1501 1504 1507 1510 1512 1514 1516 1517 1517 1517 1517 1517 1516 1516 1516 1515 1515 1514 1513 1512 1510 1509 1507 1506 1505 1504 1502 1501 1501 1500 1499 1499 1500 1499 1500 1500 1501 1501 1502 1503
1495 1496 1497 1499 1502 1505 1507 1510 1512 1514 1515 1516 1516 1516 1516 1515 1515 1515 1514 1514 1513 1512 1511 1510 1509 1507 1506 1505 1504 1503 1502 1501 1500 1499 1499 1499 1499 1499 1500 1500 1501 1502 1503
1494 1495 1496 1498 1500 1503 1505 1508 1510 1512 1513 1514 1515 1515 1515 1514 1514 1514 1513 1513 1513 1512 1511 1510 1509 1507 1506 1505 1504 1503 1502 1501 1500 1500 1499 1499 1499 1499 1500 1500 1501 1502 1503
1493 1494 1495 1496 1498 1500 1503 1505 1507 1509 1511 1512 1513 1513 1513 1513 1513 1513 1512 1512 1512 1511 1511 1510 1509 1507 1506 1505 1504 1503 1502 1501 1500 1500 1499 1499 1499 1499 1500 1500 1500 1501 1502
1493 1493 1494 1495 1496 1498 1500 1503 1505 1507 1509 1510 1511 1512 1512 1512 1512 1512 1511 1511 1511 1510 1510 1509 1508 1507 1506 1505 1504 1503 1502 1502 1501 1500 1499 1499 1499 1499 1499 1500 1500 1501 1502
1494 1493 1494 1494 1496 1497 1498 1500 1502 1504 1506 1508 1509 1509 1510 1510 1510 1510 1510 1510 1510 1509 1509 1508 1508 1507 1506 1505 1504 1503 1502 1501 1501 1500 1500 1499 1499 1499 1499 1499 1500 1501 1501
1494 1493 1493 1493 1494 1495 1497 1499 1500 1502 1504 1505 1506 1507 1507 1508 1508 1509 1508 1508 1508 1508 1508 1507 1507 1506 1505 1505 1504 1503 1502 1501 1501 1500 1500 1499 1499 1499 1499 1499 1499 1500 1501
1494 1492 1492 1492 1493 1494 1495 1496 1498 1500 1501 1503 1504 1504 1505 1506 1506 1506 1506 1506 1506 1507 1506 1506 1506 1505 1504 1504 1503 1503 1502 1501 1500 1500 1499 1499 1499 1499 1498 1498 1498 1499 1500
1494 1492 1491 1491 1491 1492 1493 1494 1495 1497 1498 1500 1501 1502 1503 1503 1503 1504 1504 1504 1504 1505 1505 1505 1504 1504 1503 1503 1502 1502 1501 1501 1500 1499 1499 1499 1498 1498 1498 1498 1498 1498 1498
1494 1492 1491 1490 1490 1491 1491 1492 1492 1493 1495 1496 1497 1498 1499 1500 1500 1501 1501 1502 1502 1502 1502 1502 1502 1502 1502 1502 1501 1501 1500 1500 1500 1499 1498 1498 1498 1498 1497 1497 1497 1497 1497
1495 1493 1491 1491 1490 1490 1490 1490 1490 1490 1491 1492 1493 1493 1495 1496 1497 1498 1498 1499 1499 1499 1500 1500 1500 1500 1500 1500 1500 1499 1499 1499 1499 1498 1498 1497 1497 1497 1497 1496 1496 1496 1496
1496 1494 1493 1491 1490 1489 1488 1488 1487 1487 1487 1488 1488 1489 1491 1492 1493 1494 1494 1495 1495 1496 1496 1497 1497 1497 1497 1498 1498 1498 1497 1497 1497 1497 1497 1496 1496 1496 1496 1496 1495 1495 1495
1499 1497 1494 1492 1490 1488 1487 1486 1485 1484 1484 1484 1484 1485 1486 1487 1488 1489 1490 1491 1491 1492 1492 1493 1493 1494 1494 1495 1495 1495 1495 1495 1495 1495 1495 1495 1495 1495 1495 1495 1494 1494 1495
1501 1498 1496 1493 1491 1489 1486 1484 1483 1482 1481 1480 1480 1481 1481 1482 1483 1484 1485 1486 1487 1487 1488 1489 1489 1490 1491 1491 1492 1492 1492 1492 1492 1493 1493 1493 1493 1493 1493 1493 1493 1493 1493
1501 1499 1496 1493 1491 1488 1486 1483 1481 1479 1478 1477 1477 1477 1477 1477 1477 1478 1479 1480 1481 1482 1482 1483 1484 1485 1486 1487 1488 1488 1488 1488 1489 1489 1489 1490 1490 1490 1491 1491 1491 1491 1491
1502 1500 1497 1494 1491 1488 1484 1482 1479 1477 1476 1474 1473 1473 1473 1472 1472 1472 1472 1473 1475 1475 1476 1477 1479 1479 1481 1482 1483 1484 1484 1484 1484 1485 1485 1486 1486 1487 1487 1488 1488 1489 1489
1502 1499 1496 1493 1490 1486 1483 1480 1477 1475 1473 1472 1470 1469 1468 1467 1466 1466 1466 1467 1467 1468 1470 1471 1472 1473 1475 1476 1477 1478 1478 1479 1479 1480 1481 1481 1482 1483 1483 1484 1484 1485 1486
1500 1497 1494 1491 1488 1485 1482 1479 1476 1473 1470 1468 1466 1464 1463 1462 1461 1460 1460 1460 1460 1461 1462 1463 1465 1467 1468 1470 1471 1472 1472 1473 1474 1475 1475 1476 1477 1478 1479 1480 1480 1481 1483
1497 1495 1492 1489 1486 1483 1480 1476 1473 1470 1467 1464 1461 1459 1457 1456 1455 1454 1453 1453 1453 1453 1454 1455 1457 1458 1461 1462 1464 1465 1466 1467 1468 1469 1470 1472 1473 1473 1474 1475 1476 1478 1479
1495 1492 1489 1486 1483 1481 1477 1473 1470 1466 1463 1459 1456 1454 1452 1450 1449 1448 1447 1446 1446 1446 1446 1447 1448 1450 1452 1454 1456 1458 1460 1461 1462 1463 1465 1466 1467 1468 1469 1470 1472 1473 1474
1492 1489 1486 1483 1480 1477 1474 1470 1466 1462 1458 1454 1451 1448 1445 1443 1442 1441 1440 1439 1438 1438 1438 1439 1440 1441 1443 1446 1448 1450 1452 1454 1456 1457 1459 1461 1462 1463 1464 1465 1467 1468 1470
1489 1486 1483 1480 1476 1473 1469 1466 1462 1458 1453 1449 1446 1442 1439 1437 1434 1433 1432 1432 1431 1431 1431 1431 1432 1433 1434 1437 1440 1442 1444 1446 1449 1451 1453 1454 1456 1457 1458 1460 1462 1464 1465
1485 1482 1479 1476 1472 1469 1465 1461 1458 1454 1449 1444 1440 1437 1433 1430 1428 1425 1423 1423 1423 1423 1422 1423 1424 1424 1427 1429 1432 1434 1437 1440 1442 1444 1445 1447 1449 1451 1453 1455 1457 1459 1460